Index of /20260430/WXO-DD/model_gdps/15km/12/222
Name Last modified Size Description
Parent Directory -
20260430T12Z_MSC_GDPS_AbsoluteVorticity_IsbL-0200_LatLon0.15_PT222H.grib2 2026-04-30 16:38 1.2M
20260430T12Z_MSC_GDPS_AbsoluteVorticity_IsbL-0250_LatLon0.15_PT222H.grib2 2026-04-30 16:38 1.3M
20260430T12Z_MSC_GDPS_AbsoluteVorticity_IsbL-0500_LatLon0.15_PT222H.grib2 2026-04-30 16:38 1.2M
20260430T12Z_MSC_GDPS_AbsoluteVorticity_IsbL-0700_LatLon0.15_PT222H.grib2 2026-04-30 16:38 1.3M
20260430T12Z_MSC_GDPS_AbsoluteVorticity_IsbL-0850_LatLon0.15_PT222H.grib2 2026-04-30 16:38 1.6M
20260430T12Z_MSC_GDPS_AirTemp-Max_AGL-2m_LatLon0.15_PT222H.grib2 2026-04-30 16:38 745K
20260430T12Z_MSC_GDPS_AirTemp-Min_AGL-2m_LatLon0.15_PT222H.grib2 2026-04-30 16:38 795K
20260430T12Z_MSC_GDPS_AirTemp_AGL-120m_LatLon0.15_PT222H.grib2 2026-04-30 16:38 909K
20260430T12Z_MSC_GDPS_AirTemp_AGL-2m_LatLon0.15_PT222H.grib2 2026-04-30 16:38 1.0M
20260430T12Z_MSC_GDPS_AirTemp_AGL-40m_LatLon0.15_PT222H.grib2 2026-04-30 16:38 811K
20260430T12Z_MSC_GDPS_AirTemp_AGL-80m_LatLon0.15_PT222H.grib2 2026-04-30 16:38 917K
20260430T12Z_MSC_GDPS_AirTemp_IsbL-0001_LatLon0.15_PT222H.grib2 2026-04-30 16:38 669K
20260430T12Z_MSC_GDPS_AirTemp_IsbL-0005_LatLon0.15_PT222H.grib2 2026-04-30 16:38 539K
20260430T12Z_MSC_GDPS_AirTemp_IsbL-0010_LatLon0.15_PT222H.grib2 2026-04-30 16:38 698K
20260430T12Z_MSC_GDPS_AirTemp_IsbL-0020_LatLon0.15_PT222H.grib2 2026-04-30 16:38 790K
20260430T12Z_MSC_GDPS_AirTemp_IsbL-0030_LatLon0.15_PT222H.grib2 2026-04-30 16:38 839K
20260430T12Z_MSC_GDPS_AirTemp_IsbL-0050_LatLon0.15_PT222H.grib2 2026-04-30 16:38 881K
20260430T12Z_MSC_GDPS_AirTemp_IsbL-0100_LatLon0.15_PT222H.grib2 2026-04-30 16:38 967K
20260430T12Z_MSC_GDPS_AirTemp_IsbL-0150_LatLon0.15_PT222H.grib2 2026-04-30 16:38 965K
20260430T12Z_MSC_GDPS_AirTemp_IsbL-0175_LatLon0.15_PT222H.grib2 2026-04-30 16:38 953K
20260430T12Z_MSC_GDPS_AirTemp_IsbL-0200_LatLon0.15_PT222H.grib2 2026-04-30 16:38 963K
20260430T12Z_MSC_GDPS_AirTemp_IsbL-0225_LatLon0.15_PT222H.grib2 2026-04-30 16:38 966K
20260430T12Z_MSC_GDPS_AirTemp_IsbL-0250_LatLon0.15_PT222H.grib2 2026-04-30 16:38 1.0M
20260430T12Z_MSC_GDPS_AirTemp_IsbL-0275_LatLon0.15_PT222H.grib2 2026-04-30 16:38 1.0M
20260430T12Z_MSC_GDPS_AirTemp_IsbL-0300_LatLon0.15_PT222H.grib2 2026-04-30 16:38 943K
20260430T12Z_MSC_GDPS_AirTemp_IsbL-0350_LatLon0.15_PT222H.grib2 2026-04-30 16:38 930K
20260430T12Z_MSC_GDPS_AirTemp_IsbL-0400_LatLon0.15_PT222H.grib2 2026-04-30 16:38 941K
20260430T12Z_MSC_GDPS_AirTemp_IsbL-0450_LatLon0.15_PT222H.grib2 2026-04-30 16:38 966K
20260430T12Z_MSC_GDPS_AirTemp_IsbL-0500_LatLon0.15_PT222H.grib2 2026-04-30 16:38 1.0M
20260430T12Z_MSC_GDPS_AirTemp_IsbL-0550_LatLon0.15_PT222H.grib2 2026-04-30 16:38 806K
20260430T12Z_MSC_GDPS_AirTemp_IsbL-0600_LatLon0.15_PT222H.grib2 2026-04-30 16:38 897K
20260430T12Z_MSC_GDPS_AirTemp_IsbL-0650_LatLon0.15_PT222H.grib2 2026-04-30 16:38 923K
20260430T12Z_MSC_GDPS_AirTemp_IsbL-0700_LatLon0.15_PT222H.grib2 2026-04-30 16:38 959K
20260430T12Z_MSC_GDPS_AirTemp_IsbL-0750_LatLon0.15_PT222H.grib2 2026-04-30 16:38 1.0M
20260430T12Z_MSC_GDPS_AirTemp_IsbL-0800_LatLon0.15_PT222H.grib2 2026-04-30 16:38 1.1M
20260430T12Z_MSC_GDPS_AirTemp_IsbL-0850_LatLon0.15_PT222H.grib2 2026-04-30 16:38 1.1M
20260430T12Z_MSC_GDPS_AirTemp_IsbL-0875_LatLon0.15_PT222H.grib2 2026-04-30 16:38 1.2M
20260430T12Z_MSC_GDPS_AirTemp_IsbL-0900_LatLon0.15_PT222H.grib2 2026-04-30 16:38 1.2M
20260430T12Z_MSC_GDPS_AirTemp_IsbL-0925_LatLon0.15_PT222H.grib2 2026-04-30 16:38 1.1M
20260430T12Z_MSC_GDPS_AirTemp_IsbL-0950_LatLon0.15_PT222H.grib2 2026-04-30 16:38 1.2M
20260430T12Z_MSC_GDPS_AirTemp_IsbL-0970_LatLon0.15_PT222H.grib2 2026-04-30 16:38 1.2M
20260430T12Z_MSC_GDPS_AirTemp_IsbL-0985_LatLon0.15_PT222H.grib2 2026-04-30 16:38 1.2M
20260430T12Z_MSC_GDPS_AirTemp_IsbL-1000_LatLon0.15_PT222H.grib2 2026-04-30 16:38 1.1M
20260430T12Z_MSC_GDPS_AirTemp_IsbL-1015_LatLon0.15_PT222H.grib2 2026-04-30 16:38 1.1M
20260430T12Z_MSC_GDPS_Albedo_Sfc_LatLon0.15_PT222H.grib2 2026-04-30 16:38 246K
20260430T12Z_MSC_GDPS_CAPE_Sfc_LatLon0.15_PT222H.grib2 2026-04-30 16:38 4.0M
20260430T12Z_MSC_GDPS_CIN_Sfc_LatLon0.15_PT222H.grib2 2026-04-30 16:38 2.9M
20260430T12Z_MSC_GDPS_CloudWater_EAtm_LatLon0.15_PT222H.grib2 2026-04-30 16:38 545K
20260430T12Z_MSC_GDPS_ConvectivePrecip-Accum_Sfc_LatLon0.15_PT222H.grib2 2026-04-30 16:38 3.7M
20260430T12Z_MSC_GDPS_DewPointDepression_AGL-2m_LatLon0.15_PT222H.grib2 2026-04-30 16:38 767K
20260430T12Z_MSC_GDPS_DewPointDepression_IsbL-0010_LatLon0.15_PT222H.grib2 2026-04-30 16:38 57K
20260430T12Z_MSC_GDPS_DewPointDepression_IsbL-0020_LatLon0.15_PT222H.grib2 2026-04-30 16:38 78K
20260430T12Z_MSC_GDPS_DewPointDepression_IsbL-0030_LatLon0.15_PT222H.grib2 2026-04-30 16:38 90K
20260430T12Z_MSC_GDPS_DewPointDepression_IsbL-0050_LatLon0.15_PT222H.grib2 2026-04-30 16:38 383K
20260430T12Z_MSC_GDPS_DewPointDepression_IsbL-0100_LatLon0.15_PT222H.grib2 2026-04-30 16:38 401K
20260430T12Z_MSC_GDPS_DewPointDepression_IsbL-0150_LatLon0.15_PT222H.grib2 2026-04-30 16:38 498K
20260430T12Z_MSC_GDPS_DewPointDepression_IsbL-0175_LatLon0.15_PT222H.grib2 2026-04-30 16:38 583K
20260430T12Z_MSC_GDPS_DewPointDepression_IsbL-0200_LatLon0.15_PT222H.grib2 2026-04-30 16:38 685K
20260430T12Z_MSC_GDPS_DewPointDepression_IsbL-0225_LatLon0.15_PT222H.grib2 2026-04-30 16:38 777K
20260430T12Z_MSC_GDPS_DewPointDepression_IsbL-0250_LatLon0.15_PT222H.grib2 2026-04-30 16:38 871K
20260430T12Z_MSC_GDPS_DewPointDepression_IsbL-0275_LatLon0.15_PT222H.grib2 2026-04-30 16:38 894K
20260430T12Z_MSC_GDPS_DewPointDepression_IsbL-0300_LatLon0.15_PT222H.grib2 2026-04-30 16:38 936K
20260430T12Z_MSC_GDPS_DewPointDepression_IsbL-0350_LatLon0.15_PT222H.grib2 2026-04-30 16:38 966K
20260430T12Z_MSC_GDPS_DewPointDepression_IsbL-0400_LatLon0.15_PT222H.grib2 2026-04-30 16:38 1.0M
20260430T12Z_MSC_GDPS_DewPointDepression_IsbL-0450_LatLon0.15_PT222H.grib2 2026-04-30 16:38 1.0M
20260430T12Z_MSC_GDPS_DewPointDepression_IsbL-0500_LatLon0.15_PT222H.grib2 2026-04-30 16:38 1.0M
20260430T12Z_MSC_GDPS_DewPointDepression_IsbL-0550_LatLon0.15_PT222H.grib2 2026-04-30 16:38 1.0M
20260430T12Z_MSC_GDPS_DewPointDepression_IsbL-0600_LatLon0.15_PT222H.grib2 2026-04-30 16:38 1.1M
20260430T12Z_MSC_GDPS_DewPointDepression_IsbL-0650_LatLon0.15_PT222H.grib2 2026-04-30 16:38 1.1M
20260430T12Z_MSC_GDPS_DewPointDepression_IsbL-0700_LatLon0.15_PT222H.grib2 2026-04-30 16:38 1.1M
20260430T12Z_MSC_GDPS_DewPointDepression_IsbL-0750_LatLon0.15_PT222H.grib2 2026-04-30 16:38 1.1M
20260430T12Z_MSC_GDPS_DewPointDepression_IsbL-0800_LatLon0.15_PT222H.grib2 2026-04-30 16:38 1.2M
20260430T12Z_MSC_GDPS_DewPointDepression_IsbL-0850_LatLon0.15_PT222H.grib2 2026-04-30 16:38 1.2M
20260430T12Z_MSC_GDPS_DewPointDepression_IsbL-0875_LatLon0.15_PT222H.grib2 2026-04-30 16:38 1.1M
20260430T12Z_MSC_GDPS_DewPointDepression_IsbL-0900_LatLon0.15_PT222H.grib2 2026-04-30 16:38 1.1M
20260430T12Z_MSC_GDPS_DewPointDepression_IsbL-0925_LatLon0.15_PT222H.grib2 2026-04-30 16:38 1.0M
20260430T12Z_MSC_GDPS_DewPointDepression_IsbL-0950_LatLon0.15_PT222H.grib2 2026-04-30 16:38 1.0M
20260430T12Z_MSC_GDPS_DewPointDepression_IsbL-0970_LatLon0.15_PT222H.grib2 2026-04-30 16:38 1.0M
20260430T12Z_MSC_GDPS_DewPointDepression_IsbL-0985_LatLon0.15_PT222H.grib2 2026-04-30 16:38 1.0M
20260430T12Z_MSC_GDPS_DewPointDepression_IsbL-1000_LatLon0.15_PT222H.grib2 2026-04-30 16:38 1.0M
20260430T12Z_MSC_GDPS_DewPointDepression_IsbL-1015_LatLon0.15_PT222H.grib2 2026-04-30 16:38 920K
20260430T12Z_MSC_GDPS_DewPoint_AGL-2m_LatLon0.15_PT222H.grib2 2026-04-30 16:38 613K
20260430T12Z_MSC_GDPS_DownwardLongwaveRadiationFlux-Accum_Sfc_LatLon0.15_PT222H.grib2 2026-04-30 16:38 732K
20260430T12Z_MSC_GDPS_DownwardShortwaveRadiationFlux-Accum_NTAtm_LatLon0.15_PT222H.grib2 2026-04-30 16:38 258K
20260430T12Z_MSC_GDPS_DownwardShortwaveRadiationFlux-Accum_Sfc_LatLon0.15_PT222H.grib2 2026-04-30 16:38 902K
20260430T12Z_MSC_GDPS_FreezingRain-Accum12h_Sfc_LatLon0.15_PT222H.grib2 2026-04-30 16:38 84K
20260430T12Z_MSC_GDPS_FreezingRain-Accum24h_Sfc_LatLon0.15_PT222H.grib2 2026-04-30 16:38 109K
20260430T12Z_MSC_GDPS_FreezingRain-Accum6h_Sfc_LatLon0.15_PT222H.grib2 2026-04-30 16:38 95K
20260430T12Z_MSC_GDPS_FreezingRain-Accum_Sfc_LatLon0.15_PT222H.grib2 2026-04-30 16:38 458K
20260430T12Z_MSC_GDPS_GeopotentialHeight_IsbL-0001_LatLon0.15_PT222H.grib2 2026-04-30 16:38 443K
20260430T12Z_MSC_GDPS_GeopotentialHeight_IsbL-0005_LatLon0.15_PT222H.grib2 2026-04-30 16:38 491K
20260430T12Z_MSC_GDPS_GeopotentialHeight_IsbL-0010_LatLon0.15_PT222H.grib2 2026-04-30 16:38 481K
20260430T12Z_MSC_GDPS_GeopotentialHeight_IsbL-0020_LatLon0.15_PT222H.grib2 2026-04-30 16:38 466K
20260430T12Z_MSC_GDPS_GeopotentialHeight_IsbL-0030_LatLon0.15_PT222H.grib2 2026-04-30 16:38 422K
20260430T12Z_MSC_GDPS_GeopotentialHeight_IsbL-0050_LatLon0.15_PT222H.grib2 2026-04-30 16:38 575K
20260430T12Z_MSC_GDPS_GeopotentialHeight_IsbL-0100_LatLon0.15_PT222H.grib2 2026-04-30 16:38 613K
20260430T12Z_MSC_GDPS_GeopotentialHeight_IsbL-0150_LatLon0.15_PT222H.grib2 2026-04-30 16:38 633K
20260430T12Z_MSC_GDPS_GeopotentialHeight_IsbL-0175_LatLon0.15_PT222H.grib2 2026-04-30 16:38 637K
20260430T12Z_MSC_GDPS_GeopotentialHeight_IsbL-0200_LatLon0.15_PT222H.grib2 2026-04-30 16:38 643K
20260430T12Z_MSC_GDPS_GeopotentialHeight_IsbL-0225_LatLon0.15_PT222H.grib2 2026-04-30 16:38 646K
20260430T12Z_MSC_GDPS_GeopotentialHeight_IsbL-0250_LatLon0.15_PT222H.grib2 2026-04-30 16:38 648K
20260430T12Z_MSC_GDPS_GeopotentialHeight_IsbL-0275_LatLon0.15_PT222H.grib2 2026-04-30 16:38 645K
20260430T12Z_MSC_GDPS_GeopotentialHeight_IsbL-0300_LatLon0.15_PT222H.grib2 2026-04-30 16:38 644K
20260430T12Z_MSC_GDPS_GeopotentialHeight_IsbL-0350_LatLon0.15_PT222H.grib2 2026-04-30 16:38 634K
20260430T12Z_MSC_GDPS_GeopotentialHeight_IsbL-0400_LatLon0.15_PT222H.grib2 2026-04-30 16:38 625K
20260430T12Z_MSC_GDPS_GeopotentialHeight_IsbL-0450_LatLon0.15_PT222H.grib2 2026-04-30 16:38 615K
20260430T12Z_MSC_GDPS_GeopotentialHeight_IsbL-0500_LatLon0.15_PT222H.grib2 2026-04-30 16:38 535K
20260430T12Z_MSC_GDPS_GeopotentialHeight_IsbL-0550_LatLon0.15_PT222H.grib2 2026-04-30 16:38 529K
20260430T12Z_MSC_GDPS_GeopotentialHeight_IsbL-0600_LatLon0.15_PT222H.grib2 2026-04-30 16:38 524K
20260430T12Z_MSC_GDPS_GeopotentialHeight_IsbL-0650_LatLon0.15_PT222H.grib2 2026-04-30 16:38 525K
20260430T12Z_MSC_GDPS_GeopotentialHeight_IsbL-0700_LatLon0.15_PT222H.grib2 2026-04-30 16:38 691K
20260430T12Z_MSC_GDPS_GeopotentialHeight_IsbL-0750_LatLon0.15_PT222H.grib2 2026-04-30 16:38 696K
20260430T12Z_MSC_GDPS_GeopotentialHeight_IsbL-0800_LatLon0.15_PT222H.grib2 2026-04-30 16:38 710K
20260430T12Z_MSC_GDPS_GeopotentialHeight_IsbL-0850_LatLon0.15_PT222H.grib2 2026-04-30 16:38 719K
20260430T12Z_MSC_GDPS_GeopotentialHeight_IsbL-0875_LatLon0.15_PT222H.grib2 2026-04-30 16:38 723K
20260430T12Z_MSC_GDPS_GeopotentialHeight_IsbL-0900_LatLon0.15_PT222H.grib2 2026-04-30 16:38 727K
20260430T12Z_MSC_GDPS_GeopotentialHeight_IsbL-0925_LatLon0.15_PT222H.grib2 2026-04-30 16:38 737K
20260430T12Z_MSC_GDPS_GeopotentialHeight_IsbL-0950_LatLon0.15_PT222H.grib2 2026-04-30 16:38 743K
20260430T12Z_MSC_GDPS_GeopotentialHeight_IsbL-0970_LatLon0.15_PT222H.grib2 2026-04-30 16:38 755K
20260430T12Z_MSC_GDPS_GeopotentialHeight_IsbL-0985_LatLon0.15_PT222H.grib2 2026-04-30 16:38 770K
20260430T12Z_MSC_GDPS_GeopotentialHeight_IsbL-1000_LatLon0.15_PT222H.grib2 2026-04-30 16:38 792K
20260430T12Z_MSC_GDPS_GeopotentialHeight_IsbL-1015_LatLon0.15_PT222H.grib2 2026-04-30 16:38 815K
20260430T12Z_MSC_GDPS_Humidex_Sfc_LatLon0.15_PT222H.grib2 2026-04-30 16:38 5.3M
20260430T12Z_MSC_GDPS_IcePellets-Accum12h_Sfc_LatLon0.15_PT222H.grib2 2026-04-30 16:38 38K
20260430T12Z_MSC_GDPS_IcePellets-Accum24h_Sfc_LatLon0.15_PT222H.grib2 2026-04-30 16:38 46K
20260430T12Z_MSC_GDPS_IcePellets-Accum6h_Sfc_LatLon0.15_PT222H.grib2 2026-04-30 16:38 30K
20260430T12Z_MSC_GDPS_IcePellets-Accum_Sfc_LatLon0.15_PT222H.grib2 2026-04-30 16:38 186K
20260430T12Z_MSC_GDPS_KIndex_Sfc_LatLon0.15_PT222H.grib2 2026-04-30 16:38 6.5M
20260430T12Z_MSC_GDPS_LatentHeatNetFlux_Sfc_LatLon0.15_PT222H.grib2 2026-04-30 16:38 528K
20260430T12Z_MSC_GDPS_LiftedIndex-MU-VT_IsbL-0500_LatLon0.15_PT222H.grib2 2026-04-30 16:38 5.4M
20260430T12Z_MSC_GDPS_NetLongwaveRadiationFlux-Accum_Sfc_LatLon0.15_PT222H.grib2 2026-04-30 16:38 927K
20260430T12Z_MSC_GDPS_NetShortwaveRadiationFlux-Accum_Sfc_LatLon0.15_PT222H.grib2 2026-04-30 16:38 882K
20260430T12Z_MSC_GDPS_O3MixingRatio_Sfc_LatLon0.15_PT222H.grib2 2026-04-30 16:46 1.9M
20260430T12Z_MSC_GDPS_O3_EAtm_LatLon0.15_PT222H.grib2 2026-04-30 16:46 2.4M
20260430T12Z_MSC_GDPS_PlanetaryBoundaryLayerHeight_Sfc_LatLon0.15_PT222H.grib2 2026-04-30 16:38 2.5M
20260430T12Z_MSC_GDPS_Precip-Accum12h_Sfc_LatLon0.15_PT222H.grib2 2026-04-30 16:38 4.1M
20260430T12Z_MSC_GDPS_Precip-Accum24h_Sfc_LatLon0.15_PT222H.grib2 2026-04-30 16:38 4.6M
20260430T12Z_MSC_GDPS_Precip-Accum6h_Sfc_LatLon0.15_PT222H.grib2 2026-04-30 16:38 3.9M
20260430T12Z_MSC_GDPS_Precip-Accum_Sfc_LatLon0.15_PT222H.grib2 2026-04-30 16:38 5.5M
20260430T12Z_MSC_GDPS_PrecipRate_Sfc_LatLon0.15_PT222H.grib2 2026-04-30 16:38 3.0M
20260430T12Z_MSC_GDPS_PrecipType-Instant_Sfc_LatLon0.15_PT222H.grib2 2026-04-30 16:38 1.6M
20260430T12Z_MSC_GDPS_Pressure_MSL_LatLon0.15_PT222H.grib2 2026-04-30 16:38 728K
20260430T12Z_MSC_GDPS_Pressure_PVU-1.5_LatLon0.15_PT222H.grib2 2026-04-30 16:38 5.8M
20260430T12Z_MSC_GDPS_Pressure_PVU-1_LatLon0.15_PT222H.grib2 2026-04-30 16:38 6.0M
20260430T12Z_MSC_GDPS_Pressure_PVU-2_LatLon0.15_PT222H.grib2 2026-04-30 16:38 6.0M
20260430T12Z_MSC_GDPS_Pressure_Sfc_LatLon0.15_PT222H.grib2 2026-04-30 16:38 1.1M
20260430T12Z_MSC_GDPS_RadiativeTemp_Sfc_LatLon0.15_PT222H.grib2 2026-04-30 16:38 668K
20260430T12Z_MSC_GDPS_Rain-Accum12h_Sfc_LatLon0.15_PT222H.grib2 2026-04-30 16:38 2.7M
20260430T12Z_MSC_GDPS_Rain-Accum24h_Sfc_LatLon0.15_PT222H.grib2 2026-04-30 16:38 3.2M
20260430T12Z_MSC_GDPS_Rain-Accum6h_Sfc_LatLon0.15_PT222H.grib2 2026-04-30 16:38 2.5M
20260430T12Z_MSC_GDPS_Rain-Accum_Sfc_LatLon0.15_PT222H.grib2 2026-04-30 16:38 4.3M
20260430T12Z_MSC_GDPS_RelativeHumidity_AGL-2m_LatLon0.15_PT222H.grib2 2026-04-30 16:38 1.1M
20260430T12Z_MSC_GDPS_RelativeHumidity_IsbL-0010_LatLon0.15_PT222H.grib2 2026-04-30 16:38 116K
20260430T12Z_MSC_GDPS_RelativeHumidity_IsbL-0020_LatLon0.15_PT222H.grib2 2026-04-30 16:38 155K
20260430T12Z_MSC_GDPS_RelativeHumidity_IsbL-0030_LatLon0.15_PT222H.grib2 2026-04-30 16:38 183K
20260430T12Z_MSC_GDPS_RelativeHumidity_IsbL-0050_LatLon0.15_PT222H.grib2 2026-04-30 16:38 331K
20260430T12Z_MSC_GDPS_RelativeHumidity_IsbL-0100_LatLon0.15_PT222H.grib2 2026-04-30 16:38 498K
20260430T12Z_MSC_GDPS_RelativeHumidity_IsbL-0150_LatLon0.15_PT222H.grib2 2026-04-30 16:38 684K
20260430T12Z_MSC_GDPS_RelativeHumidity_IsbL-0175_LatLon0.15_PT222H.grib2 2026-04-30 16:38 795K
20260430T12Z_MSC_GDPS_RelativeHumidity_IsbL-0200_LatLon0.15_PT222H.grib2 2026-04-30 16:38 711K
20260430T12Z_MSC_GDPS_RelativeHumidity_IsbL-0225_LatLon0.15_PT222H.grib2 2026-04-30 16:38 795K
20260430T12Z_MSC_GDPS_RelativeHumidity_IsbL-0250_LatLon0.15_PT222H.grib2 2026-04-30 16:38 874K
20260430T12Z_MSC_GDPS_RelativeHumidity_IsbL-0275_LatLon0.15_PT222H.grib2 2026-04-30 16:38 898K
20260430T12Z_MSC_GDPS_RelativeHumidity_IsbL-0300_LatLon0.15_PT222H.grib2 2026-04-30 16:38 941K
20260430T12Z_MSC_GDPS_RelativeHumidity_IsbL-0350_LatLon0.15_PT222H.grib2 2026-04-30 16:38 956K
20260430T12Z_MSC_GDPS_RelativeHumidity_IsbL-0400_LatLon0.15_PT222H.grib2 2026-04-30 16:38 1.0M
20260430T12Z_MSC_GDPS_RelativeHumidity_IsbL-0450_LatLon0.15_PT222H.grib2 2026-04-30 16:38 1.0M
20260430T12Z_MSC_GDPS_RelativeHumidity_IsbL-0500_LatLon0.15_PT222H.grib2 2026-04-30 16:38 1.0M
20260430T12Z_MSC_GDPS_RelativeHumidity_IsbL-0550_LatLon0.15_PT222H.grib2 2026-04-30 16:38 1.0M
20260430T12Z_MSC_GDPS_RelativeHumidity_IsbL-0600_LatLon0.15_PT222H.grib2 2026-04-30 16:38 1.1M
20260430T12Z_MSC_GDPS_RelativeHumidity_IsbL-0650_LatLon0.15_PT222H.grib2 2026-04-30 16:38 1.1M
20260430T12Z_MSC_GDPS_RelativeHumidity_IsbL-0700_LatLon0.15_PT222H.grib2 2026-04-30 16:38 1.1M
20260430T12Z_MSC_GDPS_RelativeHumidity_IsbL-0750_LatLon0.15_PT222H.grib2 2026-04-30 16:38 1.2M
20260430T12Z_MSC_GDPS_RelativeHumidity_IsbL-0800_LatLon0.15_PT222H.grib2 2026-04-30 16:38 1.3M
20260430T12Z_MSC_GDPS_RelativeHumidity_IsbL-0850_LatLon0.15_PT222H.grib2 2026-04-30 16:38 1.3M
20260430T12Z_MSC_GDPS_RelativeHumidity_IsbL-0875_LatLon0.15_PT222H.grib2 2026-04-30 16:38 1.3M
20260430T12Z_MSC_GDPS_RelativeHumidity_IsbL-0900_LatLon0.15_PT222H.grib2 2026-04-30 16:38 1.2M
20260430T12Z_MSC_GDPS_RelativeHumidity_IsbL-0925_LatLon0.15_PT222H.grib2 2026-04-30 16:38 1.2M
20260430T12Z_MSC_GDPS_RelativeHumidity_IsbL-0950_LatLon0.15_PT222H.grib2 2026-04-30 16:38 1.2M
20260430T12Z_MSC_GDPS_RelativeHumidity_IsbL-0970_LatLon0.15_PT222H.grib2 2026-04-30 16:38 1.2M
20260430T12Z_MSC_GDPS_RelativeHumidity_IsbL-0985_LatLon0.15_PT222H.grib2 2026-04-30 16:38 1.1M
20260430T12Z_MSC_GDPS_RelativeHumidity_IsbL-1000_LatLon0.15_PT222H.grib2 2026-04-30 16:38 1.1M
20260430T12Z_MSC_GDPS_RelativeHumidity_IsbL-1015_LatLon0.15_PT222H.grib2 2026-04-30 16:38 1.1M
20260430T12Z_MSC_GDPS_RelativeVorticity_IsbL-0200_LatLon0.15_PT222H.grib2 2026-04-30 16:38 1.2M
20260430T12Z_MSC_GDPS_RelativeVorticity_IsbL-0250_LatLon0.15_PT222H.grib2 2026-04-30 16:38 1.3M
20260430T12Z_MSC_GDPS_RelativeVorticity_IsbL-0500_LatLon0.15_PT222H.grib2 2026-04-30 16:38 1.2M
20260430T12Z_MSC_GDPS_RelativeVorticity_IsbL-0700_LatLon0.15_PT222H.grib2 2026-04-30 16:38 1.3M
20260430T12Z_MSC_GDPS_RelativeVorticity_IsbL-0850_LatLon0.15_PT222H.grib2 2026-04-30 16:38 1.6M
20260430T12Z_MSC_GDPS_Runoff-Accum_Sfc_LatLon0.15_PT222H.grib2 2026-04-30 16:38 138K
20260430T12Z_MSC_GDPS_SensibleHeatNetFlux_Sfc_LatLon0.15_PT222H.grib2 2026-04-30 16:38 469K
20260430T12Z_MSC_GDPS_ShowalterIndex_IsbL-0500_LatLon0.15_PT222H.grib2 2026-04-30 16:38 6.2M
20260430T12Z_MSC_GDPS_Snow-Accum12h_Sfc_LatLon0.15_PT222H.grib2 2026-04-30 16:38 1.3M
20260430T12Z_MSC_GDPS_Snow-Accum24h_Sfc_LatLon0.15_PT222H.grib2 2026-04-30 16:38 1.4M
20260430T12Z_MSC_GDPS_Snow-Accum6h_Sfc_LatLon0.15_PT222H.grib2 2026-04-30 16:38 1.3M
20260430T12Z_MSC_GDPS_Snow-Accum_Sfc_LatLon0.15_PT222H.grib2 2026-04-30 16:38 2.1M
20260430T12Z_MSC_GDPS_SnowDensity_Sfc_LatLon0.15_PT222H.grib2 2026-04-30 16:38 257K
20260430T12Z_MSC_GDPS_SnowDepth_Sfc_LatLon0.15_PT222H.grib2 2026-04-30 16:38 1.7M
20260430T12Z_MSC_GDPS_SoilTemp_DBS-0to10cm_LatLon0.15_PT222H.grib2 2026-04-30 16:38 517K
20260430T12Z_MSC_GDPS_SoilTemp_Sfc_LatLon0.15_PT222H.grib2 2026-04-30 16:38 585K
20260430T12Z_MSC_GDPS_SoilVolumetricIceContent_Sfc_LatLon0.15_PT222H.grib2 2026-04-30 16:38 179K
20260430T12Z_MSC_GDPS_SoilVolumetricWaterContent_DBS-0to10cm_LatLon0.15_PT222H.grib2 2026-04-30 16:38 596K
20260430T12Z_MSC_GDPS_SoilVolumetricWaterContent_DBS-0to1cm_LatLon0.15_PT222H.grib2 2026-04-30 16:38 647K
20260430T12Z_MSC_GDPS_SpecificHumidity_AGL-120m_LatLon0.15_PT222H.grib2 2026-04-30 16:38 1.1M
20260430T12Z_MSC_GDPS_SpecificHumidity_AGL-2m_LatLon0.15_PT222H.grib2 2026-04-30 16:38 1.2M
20260430T12Z_MSC_GDPS_SpecificHumidity_AGL-40m_LatLon0.15_PT222H.grib2 2026-04-30 16:38 1.1M
20260430T12Z_MSC_GDPS_SpecificHumidity_AGL-80m_LatLon0.15_PT222H.grib2 2026-04-30 16:38 1.1M
20260430T12Z_MSC_GDPS_SpecificHumidity_IsbL-0001_LatLon0.15_PT222H.grib2 2026-04-30 16:38 1.1M
20260430T12Z_MSC_GDPS_SpecificHumidity_IsbL-0005_LatLon0.15_PT222H.grib2 2026-04-30 16:38 1.0M
20260430T12Z_MSC_GDPS_SpecificHumidity_IsbL-0010_LatLon0.15_PT222H.grib2 2026-04-30 16:38 1.1M
20260430T12Z_MSC_GDPS_SpecificHumidity_IsbL-0020_LatLon0.15_PT222H.grib2 2026-04-30 16:38 1.2M
20260430T12Z_MSC_GDPS_SpecificHumidity_IsbL-0030_LatLon0.15_PT222H.grib2 2026-04-30 16:38 1.4M
20260430T12Z_MSC_GDPS_SpecificHumidity_IsbL-0050_LatLon0.15_PT222H.grib2 2026-04-30 16:38 1.5M
20260430T12Z_MSC_GDPS_SpecificHumidity_IsbL-0100_LatLon0.15_PT222H.grib2 2026-04-30 16:38 1.2M
20260430T12Z_MSC_GDPS_SpecificHumidity_IsbL-0150_LatLon0.15_PT222H.grib2 2026-04-30 16:38 1.3M
20260430T12Z_MSC_GDPS_SpecificHumidity_IsbL-0175_LatLon0.15_PT222H.grib2 2026-04-30 16:38 1.3M
20260430T12Z_MSC_GDPS_SpecificHumidity_IsbL-0200_LatLon0.15_PT222H.grib2 2026-04-30 16:38 1.3M
20260430T12Z_MSC_GDPS_SpecificHumidity_IsbL-0225_LatLon0.15_PT222H.grib2 2026-04-30 16:38 1.3M
20260430T12Z_MSC_GDPS_SpecificHumidity_IsbL-0250_LatLon0.15_PT222H.grib2 2026-04-30 16:38 1.2M
20260430T12Z_MSC_GDPS_SpecificHumidity_IsbL-0275_LatLon0.15_PT222H.grib2 2026-04-30 16:38 1.1M
20260430T12Z_MSC_GDPS_SpecificHumidity_IsbL-0300_LatLon0.15_PT222H.grib2 2026-04-30 16:38 1.3M
20260430T12Z_MSC_GDPS_SpecificHumidity_IsbL-0350_LatLon0.15_PT222H.grib2 2026-04-30 16:38 1.2M
20260430T12Z_MSC_GDPS_SpecificHumidity_IsbL-0400_LatLon0.15_PT222H.grib2 2026-04-30 16:38 1.4M
20260430T12Z_MSC_GDPS_SpecificHumidity_IsbL-0450_LatLon0.15_PT222H.grib2 2026-04-30 16:38 1.3M
20260430T12Z_MSC_GDPS_SpecificHumidity_IsbL-0500_LatLon0.15_PT222H.grib2 2026-04-30 16:38 1.5M
20260430T12Z_MSC_GDPS_SpecificHumidity_IsbL-0550_LatLon0.15_PT222H.grib2 2026-04-30 16:38 1.6M
20260430T12Z_MSC_GDPS_SpecificHumidity_IsbL-0600_LatLon0.15_PT222H.grib2 2026-04-30 16:38 1.5M
20260430T12Z_MSC_GDPS_SpecificHumidity_IsbL-0650_LatLon0.15_PT222H.grib2 2026-04-30 16:38 1.5M
20260430T12Z_MSC_GDPS_SpecificHumidity_IsbL-0700_LatLon0.15_PT222H.grib2 2026-04-30 16:38 1.6M
20260430T12Z_MSC_GDPS_SpecificHumidity_IsbL-0750_LatLon0.15_PT222H.grib2 2026-04-30 16:38 1.8M
20260430T12Z_MSC_GDPS_SpecificHumidity_IsbL-0800_LatLon0.15_PT222H.grib2 2026-04-30 16:38 1.9M
20260430T12Z_MSC_GDPS_SpecificHumidity_IsbL-0850_LatLon0.15_PT222H.grib2 2026-04-30 16:38 2.0M
20260430T12Z_MSC_GDPS_SpecificHumidity_IsbL-0875_LatLon0.15_PT222H.grib2 2026-04-30 16:38 2.0M
20260430T12Z_MSC_GDPS_SpecificHumidity_IsbL-0900_LatLon0.15_PT222H.grib2 2026-04-30 16:38 2.0M
20260430T12Z_MSC_GDPS_SpecificHumidity_IsbL-0925_LatLon0.15_PT222H.grib2 2026-04-30 16:38 1.6M
20260430T12Z_MSC_GDPS_SpecificHumidity_IsbL-0950_LatLon0.15_PT222H.grib2 2026-04-30 16:38 1.6M
20260430T12Z_MSC_GDPS_SpecificHumidity_IsbL-0970_LatLon0.15_PT222H.grib2 2026-04-30 16:38 1.6M
20260430T12Z_MSC_GDPS_SpecificHumidity_IsbL-0985_LatLon0.15_PT222H.grib2 2026-04-30 16:38 1.5M
20260430T12Z_MSC_GDPS_SpecificHumidity_IsbL-1000_LatLon0.15_PT222H.grib2 2026-04-30 16:38 1.5M
20260430T12Z_MSC_GDPS_SpecificHumidity_IsbL-1015_LatLon0.15_PT222H.grib2 2026-04-30 16:38 1.5M
20260430T12Z_MSC_GDPS_SpecificHumidity_Sfc_LatLon0.15_PT222H.grib2 2026-04-30 16:38 681K
20260430T12Z_MSC_GDPS_Thickness_IsbL-0850to0700_LatLon0.15_PT222H.grib2 2026-04-30 16:38 472K
20260430T12Z_MSC_GDPS_Thickness_IsbL-1000to0500_LatLon0.15_PT222H.grib2 2026-04-30 16:38 376K
20260430T12Z_MSC_GDPS_Thickness_IsbL-1000to0850_LatLon0.15_PT222H.grib2 2026-04-30 16:38 492K
20260430T12Z_MSC_GDPS_TotalCloudCover_Sfc_LatLon0.15_PT222H.grib2 2026-04-30 16:38 845K
20260430T12Z_MSC_GDPS_TotalTotalsIndex_Sfc_LatLon0.15_PT222H.grib2 2026-04-30 16:38 6.2M
20260430T12Z_MSC_GDPS_UVIndex-ClearSky-Max24h_Sfc_LatLon0.15_PT222H.grib2 2026-04-30 16:46 2.2M
20260430T12Z_MSC_GDPS_UVIndex-ClearSky_Sfc_LatLon0.15_PT222H.grib2 2026-04-30 16:46 1.0M
20260430T12Z_MSC_GDPS_UVIndex-Max24h_Sfc_LatLon0.15_PT222H.grib2 2026-04-30 16:46 3.2M
20260430T12Z_MSC_GDPS_UVIndex_Sfc_LatLon0.15_PT222H.grib2 2026-04-30 16:46 1.5M
20260430T12Z_MSC_GDPS_UpwardLongwaveRadiationFlux_NTAtm_LatLon0.15_PT222H.grib2 2026-04-30 16:38 844K
20260430T12Z_MSC_GDPS_VerticalVelocity_IsbL-0200_LatLon0.15_PT222H.grib2 2026-04-30 16:38 938K
20260430T12Z_MSC_GDPS_VerticalVelocity_IsbL-0250_LatLon0.15_PT222H.grib2 2026-04-30 16:38 1.1M
20260430T12Z_MSC_GDPS_VerticalVelocity_IsbL-0500_LatLon0.15_PT222H.grib2 2026-04-30 16:38 1.0M
20260430T12Z_MSC_GDPS_VerticalVelocity_IsbL-0600_LatLon0.15_PT222H.grib2 2026-04-30 16:38 1.1M
20260430T12Z_MSC_GDPS_VerticalVelocity_IsbL-0700_LatLon0.15_PT222H.grib2 2026-04-30 16:38 1.1M
20260430T12Z_MSC_GDPS_VerticalVelocity_IsbL-0850_LatLon0.15_PT222H.grib2 2026-04-30 16:38 1.3M
20260430T12Z_MSC_GDPS_WindChill_Sfc_LatLon0.15_PT222H.grib2 2026-04-30 16:38 5.3M
20260430T12Z_MSC_GDPS_WindDir_AGL-10m_LatLon0.15_PT222H.grib2 2026-04-30 16:38 1.3M
20260430T12Z_MSC_GDPS_WindDir_AGL-120m_LatLon0.15_PT222H.grib2 2026-04-30 16:38 1.3M
20260430T12Z_MSC_GDPS_WindDir_AGL-40m_LatLon0.15_PT222H.grib2 2026-04-30 16:38 1.4M
20260430T12Z_MSC_GDPS_WindDir_AGL-80m_LatLon0.15_PT222H.grib2 2026-04-30 16:38 1.4M
20260430T12Z_MSC_GDPS_WindDir_IsbL-0001_LatLon0.15_PT222H.grib2 2026-04-30 16:38 656K
20260430T12Z_MSC_GDPS_WindDir_IsbL-0005_LatLon0.15_PT222H.grib2 2026-04-30 16:38 814K
20260430T12Z_MSC_GDPS_WindDir_IsbL-0010_LatLon0.15_PT222H.grib2 2026-04-30 16:38 826K
20260430T12Z_MSC_GDPS_WindDir_IsbL-0020_LatLon0.15_PT222H.grib2 2026-04-30 16:38 930K
20260430T12Z_MSC_GDPS_WindDir_IsbL-0030_LatLon0.15_PT222H.grib2 2026-04-30 16:38 937K
20260430T12Z_MSC_GDPS_WindDir_IsbL-0050_LatLon0.15_PT222H.grib2 2026-04-30 16:38 951K
20260430T12Z_MSC_GDPS_WindDir_IsbL-0100_LatLon0.15_PT222H.grib2 2026-04-30 16:38 1.0M
20260430T12Z_MSC_GDPS_WindDir_IsbL-0150_LatLon0.15_PT222H.grib2 2026-04-30 16:38 1.0M
20260430T12Z_MSC_GDPS_WindDir_IsbL-0175_LatLon0.15_PT222H.grib2 2026-04-30 16:38 1.0M
20260430T12Z_MSC_GDPS_WindDir_IsbL-0200_LatLon0.15_PT222H.grib2 2026-04-30 16:38 1.1M
20260430T12Z_MSC_GDPS_WindDir_IsbL-0225_LatLon0.15_PT222H.grib2 2026-04-30 16:38 1.1M
20260430T12Z_MSC_GDPS_WindDir_IsbL-0250_LatLon0.15_PT222H.grib2 2026-04-30 16:38 1.1M
20260430T12Z_MSC_GDPS_WindDir_IsbL-0275_LatLon0.15_PT222H.grib2 2026-04-30 16:38 1.2M
20260430T12Z_MSC_GDPS_WindDir_IsbL-0300_LatLon0.15_PT222H.grib2 2026-04-30 16:38 1.2M
20260430T12Z_MSC_GDPS_WindDir_IsbL-0350_LatLon0.15_PT222H.grib2 2026-04-30 16:38 1.2M
20260430T12Z_MSC_GDPS_WindDir_IsbL-0400_LatLon0.15_PT222H.grib2 2026-04-30 16:38 1.3M
20260430T12Z_MSC_GDPS_WindDir_IsbL-0450_LatLon0.15_PT222H.grib2 2026-04-30 16:38 1.3M
20260430T12Z_MSC_GDPS_WindDir_IsbL-0500_LatLon0.15_PT222H.grib2 2026-04-30 16:38 1.4M
20260430T12Z_MSC_GDPS_WindDir_IsbL-0550_LatLon0.15_PT222H.grib2 2026-04-30 16:38 1.4M
20260430T12Z_MSC_GDPS_WindDir_IsbL-0600_LatLon0.15_PT222H.grib2 2026-04-30 16:38 1.5M
20260430T12Z_MSC_GDPS_WindDir_IsbL-0650_LatLon0.15_PT222H.grib2 2026-04-30 16:38 1.5M
20260430T12Z_MSC_GDPS_WindDir_IsbL-0700_LatLon0.15_PT222H.grib2 2026-04-30 16:38 1.6M
20260430T12Z_MSC_GDPS_WindDir_IsbL-0750_LatLon0.15_PT222H.grib2 2026-04-30 16:38 1.7M
20260430T12Z_MSC_GDPS_WindDir_IsbL-0800_LatLon0.15_PT222H.grib2 2026-04-30 16:38 1.8M
20260430T12Z_MSC_GDPS_WindDir_IsbL-0850_LatLon0.15_PT222H.grib2 2026-04-30 16:38 1.9M
20260430T12Z_MSC_GDPS_WindDir_IsbL-0875_LatLon0.15_PT222H.grib2 2026-04-30 16:38 2.0M
20260430T12Z_MSC_GDPS_WindDir_IsbL-0900_LatLon0.15_PT222H.grib2 2026-04-30 16:38 2.0M
20260430T12Z_MSC_GDPS_WindDir_IsbL-0925_LatLon0.15_PT222H.grib2 2026-04-30 16:38 2.0M
20260430T12Z_MSC_GDPS_WindDir_IsbL-0950_LatLon0.15_PT222H.grib2 2026-04-30 16:38 2.0M
20260430T12Z_MSC_GDPS_WindDir_IsbL-0970_LatLon0.15_PT222H.grib2 2026-04-30 16:38 2.0M
20260430T12Z_MSC_GDPS_WindDir_IsbL-0985_LatLon0.15_PT222H.grib2 2026-04-30 16:38 2.0M
20260430T12Z_MSC_GDPS_WindDir_IsbL-1000_LatLon0.15_PT222H.grib2 2026-04-30 16:38 2.1M
20260430T12Z_MSC_GDPS_WindDir_IsbL-1015_LatLon0.15_PT222H.grib2 2026-04-30 16:38 2.0M
20260430T12Z_MSC_GDPS_WindGust-Max_AGL-10m_LatLon0.15_PT222H.grib2 2026-04-30 16:38 2.2M
20260430T12Z_MSC_GDPS_WindGust-Min_AGL-10m_LatLon0.15_PT222H.grib2 2026-04-30 16:38 2.2M
20260430T12Z_MSC_GDPS_WindGust_AGL-10m_LatLon0.15_PT222H.grib2 2026-04-30 16:38 2.1M
20260430T12Z_MSC_GDPS_WindSpeed_AGL-10m_LatLon0.15_PT222H.grib2 2026-04-30 16:38 1.1M
20260430T12Z_MSC_GDPS_WindSpeed_AGL-120m_LatLon0.15_PT222H.grib2 2026-04-30 16:38 1.2M
20260430T12Z_MSC_GDPS_WindSpeed_AGL-40m_LatLon0.15_PT222H.grib2 2026-04-30 16:38 1.2M
20260430T12Z_MSC_GDPS_WindSpeed_AGL-80m_LatLon0.15_PT222H.grib2 2026-04-30 16:38 1.2M
20260430T12Z_MSC_GDPS_WindSpeed_IsbL-0001_LatLon0.15_PT222H.grib2 2026-04-30 16:38 653K
20260430T12Z_MSC_GDPS_WindSpeed_IsbL-0005_LatLon0.15_PT222H.grib2 2026-04-30 16:38 698K
20260430T12Z_MSC_GDPS_WindSpeed_IsbL-0010_LatLon0.15_PT222H.grib2 2026-04-30 16:38 627K
20260430T12Z_MSC_GDPS_WindSpeed_IsbL-0020_LatLon0.15_PT222H.grib2 2026-04-30 16:38 660K
20260430T12Z_MSC_GDPS_WindSpeed_IsbL-0030_LatLon0.15_PT222H.grib2 2026-04-30 16:38 860K
20260430T12Z_MSC_GDPS_WindSpeed_IsbL-0050_LatLon0.15_PT222H.grib2 2026-04-30 16:38 895K
20260430T12Z_MSC_GDPS_WindSpeed_IsbL-0100_LatLon0.15_PT222H.grib2 2026-04-30 16:38 1.1M
20260430T12Z_MSC_GDPS_WindSpeed_IsbL-0150_LatLon0.15_PT222H.grib2 2026-04-30 16:38 1.0M
20260430T12Z_MSC_GDPS_WindSpeed_IsbL-0175_LatLon0.15_PT222H.grib2 2026-04-30 16:38 1.0M
20260430T12Z_MSC_GDPS_WindSpeed_IsbL-0200_LatLon0.15_PT222H.grib2 2026-04-30 16:38 1.0M
20260430T12Z_MSC_GDPS_WindSpeed_IsbL-0225_LatLon0.15_PT222H.grib2 2026-04-30 16:38 1.1M
20260430T12Z_MSC_GDPS_WindSpeed_IsbL-0250_LatLon0.15_PT222H.grib2 2026-04-30 16:38 1.1M
20260430T12Z_MSC_GDPS_WindSpeed_IsbL-0275_LatLon0.15_PT222H.grib2 2026-04-30 16:38 1.1M
20260430T12Z_MSC_GDPS_WindSpeed_IsbL-0300_LatLon0.15_PT222H.grib2 2026-04-30 16:38 1.1M
20260430T12Z_MSC_GDPS_WindSpeed_IsbL-0350_LatLon0.15_PT222H.grib2 2026-04-30 16:38 1.1M
20260430T12Z_MSC_GDPS_WindSpeed_IsbL-0400_LatLon0.15_PT222H.grib2 2026-04-30 16:38 1.1M
20260430T12Z_MSC_GDPS_WindSpeed_IsbL-0450_LatLon0.15_PT222H.grib2 2026-04-30 16:38 1.1M
20260430T12Z_MSC_GDPS_WindSpeed_IsbL-0500_LatLon0.15_PT222H.grib2 2026-04-30 16:38 1.1M
20260430T12Z_MSC_GDPS_WindSpeed_IsbL-0550_LatLon0.15_PT222H.grib2 2026-04-30 16:38 1.1M
20260430T12Z_MSC_GDPS_WindSpeed_IsbL-0600_LatLon0.15_PT222H.grib2 2026-04-30 16:38 1.4M
20260430T12Z_MSC_GDPS_WindSpeed_IsbL-0650_LatLon0.15_PT222H.grib2 2026-04-30 16:38 1.5M
20260430T12Z_MSC_GDPS_WindSpeed_IsbL-0700_LatLon0.15_PT222H.grib2 2026-04-30 16:38 1.5M
20260430T12Z_MSC_GDPS_WindSpeed_IsbL-0750_LatLon0.15_PT222H.grib2 2026-04-30 16:38 1.6M
20260430T12Z_MSC_GDPS_WindSpeed_IsbL-0800_LatLon0.15_PT222H.grib2 2026-04-30 16:38 1.7M
20260430T12Z_MSC_GDPS_WindSpeed_IsbL-0850_LatLon0.15_PT222H.grib2 2026-04-30 16:38 1.8M
20260430T12Z_MSC_GDPS_WindSpeed_IsbL-0875_LatLon0.15_PT222H.grib2 2026-04-30 16:38 1.8M
20260430T12Z_MSC_GDPS_WindSpeed_IsbL-0900_LatLon0.15_PT222H.grib2 2026-04-30 16:38 1.8M
20260430T12Z_MSC_GDPS_WindSpeed_IsbL-0925_LatLon0.15_PT222H.grib2 2026-04-30 16:38 1.8M
20260430T12Z_MSC_GDPS_WindSpeed_IsbL-0950_LatLon0.15_PT222H.grib2 2026-04-30 16:38 1.8M
20260430T12Z_MSC_GDPS_WindSpeed_IsbL-0970_LatLon0.15_PT222H.grib2 2026-04-30 16:38 1.8M
20260430T12Z_MSC_GDPS_WindSpeed_IsbL-0985_LatLon0.15_PT222H.grib2 2026-04-30 16:38 1.9M
20260430T12Z_MSC_GDPS_WindSpeed_IsbL-1000_LatLon0.15_PT222H.grib2 2026-04-30 16:38 1.9M
20260430T12Z_MSC_GDPS_WindSpeed_IsbL-1015_LatLon0.15_PT222H.grib2 2026-04-30 16:38 1.8M
20260430T12Z_MSC_GDPS_WindU_AGL-10m_LatLon0.15_PT222H.grib2 2026-04-30 16:38 1.3M
20260430T12Z_MSC_GDPS_WindU_AGL-120m_LatLon0.15_PT222H.grib2 2026-04-30 16:38 1.0M
20260430T12Z_MSC_GDPS_WindU_AGL-40m_LatLon0.15_PT222H.grib2 2026-04-30 16:38 972K
20260430T12Z_MSC_GDPS_WindU_AGL-80m_LatLon0.15_PT222H.grib2 2026-04-30 16:38 1.0M
20260430T12Z_MSC_GDPS_WindU_IsbL-0001_LatLon0.15_PT222H.grib2 2026-04-30 16:38 506K
20260430T12Z_MSC_GDPS_WindU_IsbL-0005_LatLon0.15_PT222H.grib2 2026-04-30 16:38 696K
20260430T12Z_MSC_GDPS_WindU_IsbL-0010_LatLon0.15_PT222H.grib2 2026-04-30 16:38 702K
20260430T12Z_MSC_GDPS_WindU_IsbL-0020_LatLon0.15_PT222H.grib2 2026-04-30 16:38 726K
20260430T12Z_MSC_GDPS_WindU_IsbL-0030_LatLon0.15_PT222H.grib2 2026-04-30 16:38 735K
20260430T12Z_MSC_GDPS_WindU_IsbL-0050_LatLon0.15_PT222H.grib2 2026-04-30 16:38 760K
20260430T12Z_MSC_GDPS_WindU_IsbL-0100_LatLon0.15_PT222H.grib2 2026-04-30 16:38 865K
20260430T12Z_MSC_GDPS_WindU_IsbL-0150_LatLon0.15_PT222H.grib2 2026-04-30 16:38 1.0M
20260430T12Z_MSC_GDPS_WindU_IsbL-0175_LatLon0.15_PT222H.grib2 2026-04-30 16:38 807K
20260430T12Z_MSC_GDPS_WindU_IsbL-0200_LatLon0.15_PT222H.grib2 2026-04-30 16:38 834K
20260430T12Z_MSC_GDPS_WindU_IsbL-0225_LatLon0.15_PT222H.grib2 2026-04-30 16:38 848K
20260430T12Z_MSC_GDPS_WindU_IsbL-0250_LatLon0.15_PT222H.grib2 2026-04-30 16:38 854K
20260430T12Z_MSC_GDPS_WindU_IsbL-0275_LatLon0.15_PT222H.grib2 2026-04-30 16:38 884K
20260430T12Z_MSC_GDPS_WindU_IsbL-0300_LatLon0.15_PT222H.grib2 2026-04-30 16:38 876K
20260430T12Z_MSC_GDPS_WindU_IsbL-0350_LatLon0.15_PT222H.grib2 2026-04-30 16:38 888K
20260430T12Z_MSC_GDPS_WindU_IsbL-0400_LatLon0.15_PT222H.grib2 2026-04-30 16:38 1.1M
20260430T12Z_MSC_GDPS_WindU_IsbL-0450_LatLon0.15_PT222H.grib2 2026-04-30 16:38 1.1M
20260430T12Z_MSC_GDPS_WindU_IsbL-0500_LatLon0.15_PT222H.grib2 2026-04-30 16:38 1.1M
20260430T12Z_MSC_GDPS_WindU_IsbL-0550_LatLon0.15_PT222H.grib2 2026-04-30 16:38 1.1M
20260430T12Z_MSC_GDPS_WindU_IsbL-0600_LatLon0.15_PT222H.grib2 2026-04-30 16:38 1.2M
20260430T12Z_MSC_GDPS_WindU_IsbL-0650_LatLon0.15_PT222H.grib2 2026-04-30 16:38 1.2M
20260430T12Z_MSC_GDPS_WindU_IsbL-0700_LatLon0.15_PT222H.grib2 2026-04-30 16:38 1.2M
20260430T12Z_MSC_GDPS_WindU_IsbL-0750_LatLon0.15_PT222H.grib2 2026-04-30 16:38 1.3M
20260430T12Z_MSC_GDPS_WindU_IsbL-0800_LatLon0.15_PT222H.grib2 2026-04-30 16:38 1.4M
20260430T12Z_MSC_GDPS_WindU_IsbL-0850_LatLon0.15_PT222H.grib2 2026-04-30 16:38 1.4M
20260430T12Z_MSC_GDPS_WindU_IsbL-0875_LatLon0.15_PT222H.grib2 2026-04-30 16:38 1.5M
20260430T12Z_MSC_GDPS_WindU_IsbL-0900_LatLon0.15_PT222H.grib2 2026-04-30 16:38 1.5M
20260430T12Z_MSC_GDPS_WindU_IsbL-0925_LatLon0.15_PT222H.grib2 2026-04-30 16:38 1.5M
20260430T12Z_MSC_GDPS_WindU_IsbL-0950_LatLon0.15_PT222H.grib2 2026-04-30 16:38 1.4M
20260430T12Z_MSC_GDPS_WindU_IsbL-0970_LatLon0.15_PT222H.grib2 2026-04-30 16:38 1.4M
20260430T12Z_MSC_GDPS_WindU_IsbL-0985_LatLon0.15_PT222H.grib2 2026-04-30 16:38 1.4M
20260430T12Z_MSC_GDPS_WindU_IsbL-1000_LatLon0.15_PT222H.grib2 2026-04-30 16:38 1.4M
20260430T12Z_MSC_GDPS_WindU_IsbL-1015_LatLon0.15_PT222H.grib2 2026-04-30 16:38 1.4M
20260430T12Z_MSC_GDPS_WindV_AGL-10m_LatLon0.15_PT222H.grib2 2026-04-30 16:38 1.3M
20260430T12Z_MSC_GDPS_WindV_AGL-120m_LatLon0.15_PT222H.grib2 2026-04-30 16:38 1.0M
20260430T12Z_MSC_GDPS_WindV_AGL-40m_LatLon0.15_PT222H.grib2 2026-04-30 16:38 1.0M
20260430T12Z_MSC_GDPS_WindV_AGL-80m_LatLon0.15_PT222H.grib2 2026-04-30 16:38 1.0M
20260430T12Z_MSC_GDPS_WindV_IsbL-0001_LatLon0.15_PT222H.grib2 2026-04-30 16:38 693K
20260430T12Z_MSC_GDPS_WindV_IsbL-0005_LatLon0.15_PT222H.grib2 2026-04-30 16:38 775K
20260430T12Z_MSC_GDPS_WindV_IsbL-0010_LatLon0.15_PT222H.grib2 2026-04-30 16:38 797K
20260430T12Z_MSC_GDPS_WindV_IsbL-0020_LatLon0.15_PT222H.grib2 2026-04-30 16:38 847K
20260430T12Z_MSC_GDPS_WindV_IsbL-0030_LatLon0.15_PT222H.grib2 2026-04-30 16:38 854K
20260430T12Z_MSC_GDPS_WindV_IsbL-0050_LatLon0.15_PT222H.grib2 2026-04-30 16:38 902K
20260430T12Z_MSC_GDPS_WindV_IsbL-0100_LatLon0.15_PT222H.grib2 2026-04-30 16:38 1.1M
20260430T12Z_MSC_GDPS_WindV_IsbL-0150_LatLon0.15_PT222H.grib2 2026-04-30 16:38 1.0M
20260430T12Z_MSC_GDPS_WindV_IsbL-0175_LatLon0.15_PT222H.grib2 2026-04-30 16:38 1.0M
20260430T12Z_MSC_GDPS_WindV_IsbL-0200_LatLon0.15_PT222H.grib2 2026-04-30 16:38 834K
20260430T12Z_MSC_GDPS_WindV_IsbL-0225_LatLon0.15_PT222H.grib2 2026-04-30 16:38 844K
20260430T12Z_MSC_GDPS_WindV_IsbL-0250_LatLon0.15_PT222H.grib2 2026-04-30 16:38 907K
20260430T12Z_MSC_GDPS_WindV_IsbL-0275_LatLon0.15_PT222H.grib2 2026-04-30 16:38 933K
20260430T12Z_MSC_GDPS_WindV_IsbL-0300_LatLon0.15_PT222H.grib2 2026-04-30 16:38 925K
20260430T12Z_MSC_GDPS_WindV_IsbL-0350_LatLon0.15_PT222H.grib2 2026-04-30 16:38 879K
20260430T12Z_MSC_GDPS_WindV_IsbL-0400_LatLon0.15_PT222H.grib2 2026-04-30 16:38 879K
20260430T12Z_MSC_GDPS_WindV_IsbL-0450_LatLon0.15_PT222H.grib2 2026-04-30 16:38 1.1M
20260430T12Z_MSC_GDPS_WindV_IsbL-0500_LatLon0.15_PT222H.grib2 2026-04-30 16:38 1.1M
20260430T12Z_MSC_GDPS_WindV_IsbL-0550_LatLon0.15_PT222H.grib2 2026-04-30 16:38 1.1M
20260430T12Z_MSC_GDPS_WindV_IsbL-0600_LatLon0.15_PT222H.grib2 2026-04-30 16:38 1.1M
20260430T12Z_MSC_GDPS_WindV_IsbL-0650_LatLon0.15_PT222H.grib2 2026-04-30 16:38 1.2M
20260430T12Z_MSC_GDPS_WindV_IsbL-0700_LatLon0.15_PT222H.grib2 2026-04-30 16:38 1.2M
20260430T12Z_MSC_GDPS_WindV_IsbL-0750_LatLon0.15_PT222H.grib2 2026-04-30 16:38 1.3M
20260430T12Z_MSC_GDPS_WindV_IsbL-0800_LatLon0.15_PT222H.grib2 2026-04-30 16:38 1.3M
20260430T12Z_MSC_GDPS_WindV_IsbL-0850_LatLon0.15_PT222H.grib2 2026-04-30 16:38 1.4M
20260430T12Z_MSC_GDPS_WindV_IsbL-0875_LatLon0.15_PT222H.grib2 2026-04-30 16:38 1.5M
20260430T12Z_MSC_GDPS_WindV_IsbL-0900_LatLon0.15_PT222H.grib2 2026-04-30 16:38 1.5M
20260430T12Z_MSC_GDPS_WindV_IsbL-0925_LatLon0.15_PT222H.grib2 2026-04-30 16:38 1.5M
20260430T12Z_MSC_GDPS_WindV_IsbL-0950_LatLon0.15_PT222H.grib2 2026-04-30 16:38 1.4M
20260430T12Z_MSC_GDPS_WindV_IsbL-0970_LatLon0.15_PT222H.grib2 2026-04-30 16:38 1.4M
20260430T12Z_MSC_GDPS_WindV_IsbL-0985_LatLon0.15_PT222H.grib2 2026-04-30 16:38 1.4M
20260430T12Z_MSC_GDPS_WindV_IsbL-1000_LatLon0.15_PT222H.grib2 2026-04-30 16:38 1.4M
20260430T12Z_MSC_GDPS_WindV_IsbL-1015_LatLon0.15_PT222H.grib2 2026-04-30 16:38 1.4M